QPF
0.00 0.00 0.00 0.00 0.00 0.00 0.00 0.00 0.00 0.00 0.00 0.00 0.00 0.00 0.00 0.00 0.00 0.00 0.00 0.00 0.00 0.00 0.00 0.00 0.00 0.01 0.01 0.01 0.01 0.01 0.10 0.01 0.02 0.03 0.08 0.05 0.03 0.01 0.05 0.06 0.11 0.06
0.00 0.00 0.00 0.00 0.00 0.00 0.00 0.00 0.00 0.00 0.00 0.00 0.00 0.00 0.00 0.00 0.00 0.00 0.00 0.00 0.00 0.00 0.00 0.00 0.00 0.00 0.00 0.01 0.01 0.06 0.18 0.16 0.14 0.08 0.20 0.16 0.15 0.10 0.10 0.06 0.06 0.12
0.00 0.00 0.00 0.00 0.00 0.00 0.00 0.00 0.00 0.00 0.00 0.00 0.00 0.00 0.00 0.00 0.00 0.00 0.00 0.00 0.00 0.00 0.00 0.00 0.00 0.00 0.00 0.00 0.01 0.01 0.12 0.16 0.22 0.13 0.13 0.10 0.08 0.12 0.08 0.04 0.13 0.08
0.00 0.00 0.00 0.00 0.00 0.00 0.00 0.00 0.00 0.00 0.00 0.00 0.00 0.00 0.00 0.00 0.00 0.00 0.00 0.00 0.00 0.00 0.00 0.00 0.00 0.00 0.00 0.00 0.02 0.01 0.01 0.06 0.08 0.19 0.16 0.15 0.19 0.12 0.06 0.14 0.05 0.11
0.00 0.00 0.00 0.00 0.00 0.00 0.00 0.00 0.00 0.00 0.00 0.00 0.00 0.00 0.00 0.00 0.00 0.00 0.00 0.00 0.00 0.00 0.00 0.00 0.00 0.00 0.00 0.01 0.01 0.02 0.01 0.01 0.01 0.03 0.06 0.08 0.20 0.21 0.09 0.12 0.14 0.06
0.00 0.00 0.00 0.00 0.00 0.00 0.00 0.00 0.00 0.00 0.00 0.00 0.00 0.00 0.00 0.00 0.00 0.00 0.00 0.00 0.00 0.00 0.00 0.00 0.00 0.00 0.01 0.01 0.02 0.02 0.01 0.01 0.01 0.01 0.01 0.03 0.09 0.06 0.06 0.15 0.08 0.05
0.00 0.00 0.00 0.00 0.00 0.00 0.00 0.00 0.00 0.00 0.00 0.00 0.00 0.00 0.00 0.00 0.00 0.00 0.00 0.00 0.00 0.00 0.00 0.00 0.00 0.00 0.01 0.02 0.01 0.01 0.01 0.02 0.02 0.03 0.01 0.01 0.03 0.02 0.02 0.04 0.13 0.10
0.00 0.00 0.00 0.00 0.00 0.00 0.00 0.00 0.00 0.00 0.00 0.00 0.00 0.00 0.00 0.00 0.00 0.00 0.00 0.00 0.00 0.00 0.01 0.01 0.01 0.01 0.02 0.02 0.02 0.02 0.01 0.01 0.01 0.03 0.01 0.02 0.02 0.02 0.04 0.03 0.04 0.05
0.00 0.00 0.00 0.00 0.00 0.00 0.00 0.00 0.00 0.00 0.00 0.00 0.00 0.00 0.00 0.00 0.00 0.00 0.00 0.00 0.00 0.00 0.01 0.01 0.01 0.01 0.02 0.02 0.02 0.02 0.02 0.01 0.01 0.02 0.02 0.03 0.03 0.07 0.02 0.05 0.02 0.05
0.00 0.00 0.00 0.00 0.00 0.00 0.00 0.00 0.00 0.00 0.00 0.00 0.00 0.00 0.00 0.00 0.00 0.00 0.00 0.00 0.00 0.00 0.00 0.00 0.00 0.01 0.02 0.02 0.04 0.03 0.03 0.03 0.05 0.05 0.07 0.07 0.06 0.05 0.03 0.02 0.02 0.03
0.00 0.00 0.00 0.00 0.00 0.00 0.00 0.00 0.00 0.00 0.00 0.00 0.00 0.00 0.00 0.00 0.00 0.00 0.00 0.00 0.00 0.00 0.00 0.00 0.00 0.00 0.00 0.01 0.02 0.04 0.03 0.04 0.13 0.09 0.05 0.04 0.03 0.05 0.03 0.03 0.04 0.05
0.00 0.00 0.00 0.00 0.00 0.00 0.00 0.00 0.00 0.00 0.00 0.00 0.00 0.00 0.00 0.00 0.00 0.00 0.00 0.00 0.00 0.00 0.00 0.00 0.00 0.01 0.02 0.02 0.03 0.03 0.03 0.03 0.03 0.02 0.02 0.02 0.01 0.02 0.03 0.04 0.05 0.07
0.00 0.00 0.00 0.00 0.00 0.00 0.00 0.00 0.00 0.00 0.00 0.00 0.00 0.00 0.00 0.00 0.00 0.00 0.00 0.00 0.00 0.00 0.00 0.00 0.00 0.01 0.04 0.06 0.06 0.04 0.04 0.03 0.02 0.01 0.01 0.01 0.01 0.01 0.01 0.02 0.03 0.04
0.00 0.00 0.00 0.00 0.00 0.00 0.00 0.00 0.00 0.00 0.00 0.00 0.00 0.00 0.00 0.00 0.00 0.00 0.00 0.00 0.00 0.00 0.00 0.01 0.01 0.02 0.04 0.05 0.07 0.06 0.04 0.03 0.02 0.01 0.03 0.01 0.01 0.01 0.02 0.03 0.02 0.02
0.00 0.00 0.00 0.00 0.00 0.00 0.00 0.00 0.00 0.00 0.00 0.00 0.00 0.00 0.00 0.00 0.00 0.00 0.00 0.00 0.00 0.00 0.00 0.01 0.01 0.03 0.07 0.11 0.11 0.05 0.04 0.01 0.01 0.01 0.02 0.02 0.01 0.02 0.02 0.02 0.03 0.02
0.00 0.00 0.00 0.00 0.00 0.00 0.00 0.00 0.00 0.00 0.00 0.00 0.00 0.00 0.00 0.00 0.00 0.00 0.00 0.00 0.00 0.00 0.00 0.01 0.03 0.08 0.11 0.12 0.07 0.02 0.01 0.01 0.01 0.01 0.01 0.02 0.02 0.01 0.01 0.02 0.04 0.05
0.00 0.00 0.00 0.00 0.00 0.00 0.00 0.00 0.00 0.00 0.00 0.00 0.00 0.00 0.00 0.00 0.00 0.00 0.00 0.00 0.00 0.00 0.00 0.03 0.04 0.08 0.08 0.10 0.03 0.01 0.02 0.02 0.02 0.01 0.01 0.02 0.02 0.02 0.02 0.01 0.02 0.04
0.00 0.00 0.00 0.00 0.00 0.00 0.00 0.00 0.00 0.00 0.00 0.00 0.00 0.00 0.00 0.00 0.00 0.00 0.00 0.00 0.00 0.00 0.00 0.01 0.03 0.04 0.07 0.04 0.01 0.01 0.02 0.02 0.02 0.02 0.01 0.01 0.01 0.02 0.02 0.02 0.02 0.04
0.00 0.00 0.00 0.00 0.00 0.00 0.00 0.00 0.00 0.00 0.00 0.00 0.00 0.00 0.00 0.00 0.00 0.00 0.00 0.00 0.00 0.00 0.00 0.00 0.00 0.02 0.01 0.00 0.00 0.00 0.01 0.01 0.01 0.02 0.02 0.02 0.02 0.02 0.03 0.04 0.04 0.08
0.00 0.00 0.00 0.00 0.00 0.00 0.00 0.00 0.00 0.00 0.00 0.00 0.00 0.00 0.00 0.00 0.00 0.00 0.00 0.00 0.00 0.00 0.00 0.00 0.01 0.00 0.00 0.00 0.00 0.00 0.00 0.00 0.00 0.01 0.02 0.02 0.02 0.02 0.03 0.04 0.04 0.04
0.00 0.00 0.00 0.00 0.00 0.00 0.00 0.00 0.00 0.00 0.00 0.00 0.00 0.00 0.00 0.00 0.00 0.00 0.00 0.00 0.00 0.00 0.00 0.01 0.02 0.00 0.00 0.00 0.00 0.00 0.00 0.00 0.00 0.00 0.01 0.03 0.03 0.03 0.06 0.07 0.06 0.03
0.00 0.00 0.00 0.00 0.00 0.00 0.00 0.00 0.00 0.00 0.00 0.00 0.00 0.00 0.00 0.00 0.00 0.00 0.00 0.00 0.00 0.00 0.00 0.00 0.00 0.00 0.00 0.00 0.00 0.00 0.00 0.00 0.00 0.00 0.01 0.02 0.03 0.03 0.03 0.10 0.07 0.04
0.00 0.00 0.00 0.00 0.00 0.00 0.00 0.00 0.00 0.00 0.00 0.00 0.00 0.00 0.00 0.00 0.00 0.00 0.00 0.00 0.00 0.00 0.00 0.00 0.00 0.00 0.00 0.00 0.00 0.00 0.00 0.01 0.00 0.00 0.00 0.01 0.03 0.05 0.05 0.05 0.03 0.04
0.00 0.00 0.00 0.00 0.00 0.00 0.00 0.00 0.00 0.00 0.00 0.00 0.00 0.00 0.00 0.00 0.00 0.00 0.00 0.00 0.00 0.00 0.00 0.00 0.00 0.00 0.00 0.00 0.00 0.00 0.00 0.00 0.01 0.00 0.00 0.00 0.03 0.05 0.05 0.05 0.05 0.05
0.00 0.00 0.00 0.00 0.00 0.00 0.00 0.00 0.00 0.00 0.00 0.00 0.00 0.00 0.00 0.00 0.00 0.00 0.00 0.00 0.00 0.00 0.00 0.00 0.00 0.00 0.00 0.00 0.00 0.00 0.00 0.00 0.01 0.01 0.01 0.01 0.02 0.04 0.05 0.04 0.06 0.08
0.00 0.00 0.00 0.00 0.00 0.00 0.00 0.00 0.00 0.00 0.00 0.00 0.00 0.00 0.00 0.00 0.00 0.00 0.00 0.00 0.00 0.00 0.00 0.00 0.00 0.00 0.00 0.00 0.00 0.00 0.00 0.00 0.01 0.02 0.01 0.01 0.02 0.03 0.04 0.03 0.05 0.09
MSLP
1017.50 1017.54 1017.58 1017.62 1017.62 1017.66 1017.74 1017.78 1017.66 1017.66 1017.50 1017.26 1017.18 1016.90 1016.74 1016.46 1016.22 1016.06 1015.90 1015.78 1015.70 1015.62 1015.54 1015.46 1015.38 1015.30 1015.10 1014.98 1014.82 1014.66 1014.54 1014.46 1014.46 1014.26 1014.26 1014.30 1014.34 1014.30 1014.34 1014.30 1014.50 1014.46
1017.42 1017.42 1017.46 1017.50 1017.54 1017.54 1017.58 1017.58 1017.58 1017.54 1017.42 1017.18 1016.98 1016.78 1016.54 1016.38 1016.18 1016.02 1015.90 1015.74 1015.54 1015.46 1015.34 1015.26 1015.18 1015.14 1015.02 1014.90 1014.78 1014.74 1014.62 1014.62 1014.62 1014.18 1014.26 1013.98 1013.86 1013.74 1013.78 1013.74 1013.78 1014.06
1017.38 1017.38 1017.42 1017.58 1017.58 1017.54 1017.46 1017.38 1017.34 1017.22 1017.10 1016.90 1016.74 1016.62 1016.46 1016.22 1016.10 1015.94 1015.78 1015.62 1015.54 1015.34 1015.22 1015.10 1015.02 1014.90 1014.82 1014.70 1014.58 1014.54 1014.62 1014.38 1014.50 1013.94 1013.82 1013.82 1013.70 1013.54 1013.38 1013.34 1013.30 1013.58
1017.38 1017.38 1017.38 1017.42 1017.38 1017.42 1017.34 1017.30 1017.14 1016.98 1016.82 1016.74 1016.62 1016.46 1016.38 1016.18 1016.02 1015.86 1015.66 1015.54 1015.42 1015.26 1015.10 1014.98 1014.90 1014.74 1014.62 1014.46 1014.34 1014.26 1014.14 1014.06 1013.82 1013.66 1013.78 1013.70 1013.50 1013.14 1013.06 1012.94 1012.90 1012.90
1017.30 1017.26 1017.26 1017.26 1017.26 1017.26 1017.26 1017.26 1017.10 1016.86 1016.74 1016.58 1016.42 1016.30 1016.22 1016.14 1015.98 1015.74 1015.58 1015.38 1015.22 1015.10 1014.86 1014.78 1014.62 1014.54 1014.42 1014.30 1014.14 1014.10 1013.86 1013.66 1013.42 1013.42 1013.42 1013.34 1013.26 1013.10 1012.58 1012.54 1012.54 1012.58
1017.10 1017.10 1017.10 1017.18 1017.18 1017.22 1017.22 1017.10 1016.94 1016.78 1016.58 1016.42 1016.30 1016.10 1016.02 1015.94 1015.82 1015.62 1015.42 1015.30 1015.06 1014.90 1014.82 1014.62 1014.46 1014.30 1014.18 1014.14 1014.02 1013.86 1013.66 1013.46 1013.18 1013.10 1013.14 1013.06 1012.78 1012.54 1012.54 1012.38 1012.30 1012.14
1016.98 1016.98 1016.98 1016.94 1016.98 1016.94 1017.02 1016.86 1016.70 1016.54 1016.42 1016.26 1016.10 1016.06 1015.86 1015.82 1015.66 1015.46 1015.26 1015.06 1014.94 1014.82 1014.74 1014.58 1014.42 1014.22 1014.02 1013.94 1013.90 1013.78 1013.54 1013.38 1013.10 1012.90 1012.82 1012.58 1012.30 1012.06 1011.86 1011.86 1011.86 1012.02
1016.82 1016.74 1016.78 1016.74 1016.78 1016.70 1016.66 1016.54 1016.42 1016.34 1016.22 1016.18 1016.18 1015.86 1015.74 1015.66 1015.50 1015.26 1015.02 1014.90 1014.86 1014.74 1014.58 1014.42 1014.26 1014.10 1013.90 1013.78 1013.78 1013.70 1013.54 1013.26 1013.14 1012.86 1012.66 1012.38 1012.06 1011.82 1011.42 1011.14 1011.02 1011.10
1016.70 1016.70 1016.62 1016.62 1016.58 1016.42 1016.38 1016.26 1016.10 1016.06 1015.98 1016.10 1015.98 1015.78 1015.54 1015.46 1015.30 1015.10 1014.94 1014.82 1014.78 1014.66 1014.46 1014.30 1014.10 1013.98 1013.78 1013.74 1013.70 1013.58 1013.42 1013.18 1012.90 1012.74 1012.54 1012.26 1011.94 1011.58 1011.26 1010.98 1010.66 1010.46
1016.58 1016.46 1016.50 1016.46 1016.38 1016.18 1016.18 1016.02 1015.86 1015.82 1015.70 1015.82 1015.70 1015.58 1015.46 1015.18 1015.02 1014.94 1014.78 1014.70 1014.66 1014.50 1014.26 1014.10 1013.98 1013.90 1013.78 1013.66 1013.54 1013.34 1013.14 1012.90 1012.62 1012.46 1012.22 1011.86 1011.50 1011.06 1010.66 1010.34 1010.10 1009.98
1016.38 1016.34 1016.34 1016.26 1016.18 1015.98 1015.90 1015.74 1015.54 1015.46 1015.42 1015.50 1015.38 1015.30 1015.10 1014.94 1014.78 1014.62 1014.58 1014.50 1014.42 1014.22 1014.06 1013.90 1013.82 1013.78 1013.74 1013.58 1013.38 1013.14 1012.94 1012.66 1012.34 1012.10 1011.78 1011.42 1011.02 1010.62 1010.18 1009.82 1009.58 1009.38
1016.22 1016.18 1016.14 1016.02 1015.94 1015.82 1015.70 1015.54 1015.46 1015.42 1015.30 1015.10 1015.02 1014.98 1014.74 1014.58 1014.46 1014.30 1014.22 1014.18 1014.02 1013.86 1013.74 1013.70 1013.62 1013.66 1013.62 1013.46 1013.18 1012.90 1012.70 1012.46 1012.22 1011.90 1011.50 1011.14 1010.70 1010.26 1009.66 1009.22 1008.98 1008.70
1016.02 1015.94 1015.86 1015.78 1015.70 1015.62 1015.46 1015.38 1015.26 1015.06 1014.94 1014.82 1014.62 1014.54 1014.42 1014.26 1014.06 1013.98 1013.82 1013.78 1013.62 1013.50 1013.46 1013.42 1013.46 1013.46 1013.42 1013.22 1012.94 1012.74 1012.58 1012.42 1012.14 1011.74 1011.42 1011.02 1010.54 1010.02 1009.46 1008.78 1008.42 1008.14
1015.78 1015.62 1015.58 1015.58 1015.46 1015.38 1015.26 1015.14 1015.02 1014.90 1014.74 1014.54 1014.42 1014.34 1014.10 1013.90 1013.74 1013.62 1013.42 1013.34 1013.26 1013.18 1013.14 1013.14 1013.26 1013.22 1013.14 1013.02 1012.82 1012.66 1012.50 1012.38 1012.10 1011.70 1011.26 1010.82 1010.30 1009.78 1009.26 1008.66 1008.02 1007.58
1015.50 1015.42 1015.34 1015.34 1015.26 1015.18 1015.10 1014.94 1014.74 1014.58 1014.42 1014.30 1014.18 1014.02 1013.74 1013.54 1013.34 1013.30 1013.26 1013.14 1012.98 1012.94 1012.90 1012.86 1012.98 1013.06 1013.06 1013.06 1012.94 1012.70 1012.54 1012.38 1012.06 1011.58 1011.10 1010.58 1009.98 1009.46 1009.06 1008.54 1007.86 1007.18
1015.22 1015.22 1015.22 1015.14 1015.10 1015.02 1014.86 1014.66 1014.46 1014.34 1014.22 1014.10 1013.90 1013.66 1013.46 1013.30 1013.18 1013.10 1012.98 1012.90 1012.82 1012.74 1012.66 1012.70 1012.78 1012.78 1012.90 1012.82 1012.82 1012.78 1012.58 1012.34 1011.90 1011.46 1010.94 1010.42 1009.90 1009.46 1009.10 1008.62 1007.90 1007.02
1015.06 1015.02 1014.98 1015.02 1014.86 1014.74 1014.58 1014.46 1014.30 1014.14 1014.06 1013.90 1013.70 1013.46 1013.30 1013.10 1012.98 1012.90 1012.74 1012.58 1012.58 1012.58 1012.50 1012.46 1012.58 1012.66 1012.62 1012.50 1012.54 1012.42 1012.46 1012.22 1011.82 1011.38 1010.82 1010.38 1009.90 1009.54 1009.26 1008.74 1008.22 1007.58
1014.78 1014.74 1014.82 1014.74 1014.62 1014.50 1014.34 1014.18 1014.10 1014.06 1013.90 1013.70 1013.54 1013.34 1013.10 1012.86 1012.82 1012.70 1012.54 1012.46 1012.34 1012.30 1012.30 1012.26 1012.38 1012.38 1012.34 1012.34 1012.30 1012.30 1012.30 1012.10 1011.66 1011.22 1010.78 1010.42 1009.94 1009.50 1009.14 1008.78 1008.38 1007.82
1014.50 1014.58 1014.58 1014.54 1014.38 1014.18 1014.10 1014.06 1013.98 1013.86 1013.70 1013.54 1013.42 1013.14 1012.98 1012.90 1012.66 1012.50 1012.38 1012.22 1012.22 1012.22 1012.14 1012.02 1012.06 1012.10 1012.18 1012.14 1012.18 1012.22 1012.06 1011.86 1011.38 1011.02 1010.74 1010.46 1009.98 1009.62 1009.34 1008.98 1008.50 1008.02
1014.26 1014.34 1014.38 1014.22 1014.06 1014.02 1013.98 1013.94 1013.82 1013.66 1013.46 1013.30 1013.18 1013.06 1012.98 1012.78 1012.50 1012.38 1012.18 1012.10 1012.02 1011.98 1011.86 1011.74 1011.86 1011.78 1011.90 1011.98 1012.10 1012.06 1011.78 1011.58 1011.06 1010.78 1010.54 1010.34 1010.14 1009.78 1009.46 1009.14 1008.70 1008.30
1014.02 1014.02 1014.06 1013.94 1013.86 1013.86 1013.86 1013.74 1013.58 1013.42 1013.26 1013.10 1013.02 1012.98 1012.86 1012.70 1012.50 1012.34 1012.10 1011.98 1011.78 1011.66 1011.62 1011.50 1011.50 1011.58 1011.66 1011.86 1011.78 1011.58 1011.46 1011.30 1010.82 1010.58 1010.46 1010.26 1010.06 1009.82 1009.54 1009.14 1008.70 1008.26
1013.66 1013.70 1013.70 1013.70 1013.70 1013.66 1013.66 1013.54 1013.34 1013.22 1013.18 1012.98 1012.94 1012.78 1012.54 1012.42 1012.26 1012.06 1011.98 1011.86 1011.62 1011.54 1011.46 1011.34 1011.06 1011.22 1011.42 1011.42 1011.34 1011.26 1011.18 1010.86 1010.62 1010.46 1010.34 1010.18 1009.94 1009.66 1009.38 1009.06 1008.62 1008.18
1013.30 1013.42 1013.50 1013.50 1013.50 1013.50 1013.46 1013.30 1013.22 1013.06 1012.94 1012.82 1012.90 1012.66 1012.50 1012.30 1012.06 1011.90 1011.74 1011.66 1011.54 1011.38 1011.30 1011.18 1010.90 1010.86 1011.02 1011.10 1011.10 1011.06 1011.02 1010.58 1010.38 1010.22 1010.10 1010.06 1009.90 1009.54 1009.22 1008.90 1008.54 1008.14
1013.06 1013.18 1013.34 1013.30 1013.26 1013.30 1013.18 1013.06 1012.90 1012.82 1012.82 1012.74 1012.82 1012.70 1012.46 1012.14 1011.90 1011.78 1011.54 1011.38 1011.38 1011.22 1011.02 1011.02 1010.74 1010.54 1010.74 1010.82 1010.86 1010.86 1010.86 1010.54 1010.22 1010.02 1009.82 1009.74 1009.62 1009.34 1009.02 1008.70 1008.30 1007.90
1012.82 1012.94 1013.06 1013.06 1013.02 1012.94 1012.86 1012.90 1012.82 1012.78 1012.66 1012.58 1012.54 1012.42 1012.26 1011.98 1011.82 1011.70 1011.42 1011.18 1010.98 1010.94 1010.94 1010.94 1010.54 1010.30 1010.38 1010.54 1010.58 1010.66 1010.62 1010.26 1010.02 1009.78 1009.70 1009.54 1009.46 1009.26 1008.82 1008.54 1008.14 1007.74
1012.62 1012.78 1012.78 1012.74 1012.74 1012.66 1012.58 1012.58 1012.54 1012.50 1012.46 1012.46 1012.34 1012.10 1011.98 1011.82 1011.74 1011.54 1011.42 1011.06 1010.74 1010.74 1010.58 1010.54 1010.42 1010.18 1010.06 1010.26 1010.30 1010.38 1010.50 1010.30 1009.82 1009.70 1009.62 1009.46 1009.38 1009.18 1008.86 1008.38 1007.98 1007.58
Thickness
5723 5721 5718 5716 5714 5711 5707 5704 5701 5698 5697 5696 5695 5693 5691 5690 5689 5688 5686 5684 5683 5682 5680 5679 5677 5676 5677 5677 5678 5679 5681 5681 5680 5681 5682 5682 5683 5684 5685 5687 5689 5688
5720 5718 5716 5713 5710 5707 5705 5701 5698 5695 5694 5692 5690 5688 5687 5686 5685 5683 5682 5680 5679 5677 5676 5675 5674 5672 5672 5672 5672 5673 5674 5674 5674 5676 5677 5677 5679 5681 5682 5684 5685 5683
5718 5715 5712 5709 5706 5704 5701 5699 5696 5694 5691 5689 5687 5685 5683 5682 5681 5679 5678 5676 5675 5673 5672 5671 5670 5669 5668 5668 5668 5668 5669 5669 5670 5672 5672 5674 5676 5678 5680 5680 5681 5680
5714 5711 5709 5706 5703 5700 5698 5695 5692 5691 5689 5686 5684 5681 5679 5678 5676 5675 5674 5672 5670 5669 5669 5667 5665 5665 5664 5665 5665 5665 5666 5666 5667 5668 5668 5669 5670 5673 5677 5677 5677 5678
5711 5708 5706 5703 5700 5697 5694 5691 5689 5687 5685 5682 5681 5678 5676 5674 5673 5672 5670 5669 5667 5665 5664 5663 5662 5661 5660 5660 5660 5660 5662 5664 5664 5664 5663 5664 5666 5668 5671 5673 5674 5676
5709 5705 5703 5699 5696 5693 5689 5688 5685 5683 5681 5679 5677 5675 5673 5671 5670 5669 5667 5665 5664 5662 5661 5659 5658 5657 5656 5655 5654 5655 5656 5657 5659 5660 5659 5660 5663 5664 5666 5667 5670 5672
5706 5703 5700 5696 5694 5690 5687 5685 5682 5680 5678 5676 5673 5672 5670 5669 5667 5666 5665 5663 5661 5659 5656 5655 5654 5653 5652 5651 5650 5649 5649 5650 5652 5654 5654 5656 5658 5661 5663 5665 5666 5668
5702 5700 5697 5693 5690 5688 5684 5683 5680 5677 5676 5672 5669 5668 5667 5666 5664 5663 5662 5661 5658 5656 5653 5652 5651 5650 5649 5647 5646 5644 5643 5644 5644 5646 5647 5650 5652 5656 5660 5662 5664 5667
5699 5696 5693 5690 5688 5685 5683 5680 5678 5676 5673 5669 5666 5665 5664 5663 5662 5660 5659 5657 5655 5652 5651 5649 5647 5646 5645 5642 5641 5639 5638 5639 5639 5640 5641 5643 5647 5651 5655 5658 5661 5665
5696 5693 5690 5687 5685 5683 5680 5678 5676 5673 5671 5668 5665 5662 5661 5660 5659 5658 5655 5653 5651 5649 5648 5646 5644 5642 5640 5637 5636 5635 5634 5634 5635 5636 5637 5639 5643 5647 5651 5655 5658 5663
5693 5690 5687 5684 5682 5680 5678 5676 5674 5671 5669 5666 5663 5661 5660 5659 5657 5655 5652 5650 5649 5647 5646 5643 5641 5638 5635 5633 5632 5631 5630 5630 5631 5632 5634 5636 5639 5644 5648 5653 5657 5660
5689 5687 5684 5682 5679 5677 5675 5673 5671 5669 5667 5665 5663 5661 5659 5658 5656 5653 5651 5649 5647 5646 5644 5641 5638 5634 5631 5629 5628 5628 5627 5627 5628 5629 5631 5633 5636 5640 5646 5652 5655 5659
5686 5684 5682 5679 5677 5674 5672 5670 5669 5667 5665 5664 5662 5660 5658 5656 5655 5652 5650 5648 5646 5644 5641 5638 5636 5631 5628 5627 5626 5625 5624 5623 5624 5625 5626 5629 5632 5637 5643 5649 5655 5659
5683 5681 5679 5677 5674 5672 5670 5668 5667 5664 5663 5662 5660 5659 5657 5656 5654 5651 5649 5646 5644 5642 5639 5636 5633 5628 5626 5625 5623 5622 5621 5620 5620 5621 5623 5626 5630 5634 5640 5646 5653 5658
5681 5679 5677 5674 5672 5670 5668 5666 5665 5663 5662 5660 5659 5658 5656 5655 5653 5650 5647 5644 5642 5640 5638 5634 5631 5627 5623 5621 5620 5619 5618 5617 5616 5617 5620 5624 5628 5632 5637 5643 5650 5657
5679 5676 5674 5671 5669 5667 5665 5664 5663 5661 5659 5658 5657 5656 5655 5653 5651 5647 5645 5642 5640 5637 5635 5632 5628 5625 5621 5618 5616 5615 5614 5614 5614 5615 5617 5621 5625 5629 5633 5638 5645 5653
5677 5674 5671 5669 5666 5664 5663 5661 5660 5658 5657 5655 5654 5653 5652 5650 5648 5645 5642 5640 5638 5635 5633 5630 5626 5622 5619 5617 5615 5613 5611 5611 5612 5614 5616 5619 5622 5626 5629 5634 5639 5647
5675 5672 5668 5665 5664 5662 5660 5659 5657 5655 5653 5652 5651 5650 5649 5647 5644 5641 5638 5637 5636 5634 5631 5627 5624 5621 5618 5615 5613 5611 5609 5608 5610 5612 5613 5615 5618 5622 5625 5629 5634 5639
5672 5669 5665 5662 5661 5660 5658 5655 5653 5651 5650 5649 5647 5645 5644 5642 5640 5638 5636 5634 5633 5631 5629 5627 5622 5619 5616 5613 5611 5609 5607 5607 5608 5609 5610 5612 5614 5617 5620 5624 5628 5634
5669 5665 5662 5660 5658 5657 5654 5651 5650 5648 5647 5645 5643 5641 5639 5637 5636 5634 5632 5631 5630 5629 5628 5626 5622 5619 5615 5612 5610 5609 5607 5606 5606 5608 5608 5608 5610 5613 5615 5619 5624 5629
5666 5662 5659 5657 5656 5653 5650 5648 5646 5644 5643 5641 5639 5637 5634 5632 5631 5630 5629 5628 5628 5628 5626 5625 5623 5619 5614 5611 5610 5609 5607 5606 5606 5606 5606 5606 5607 5609 5611 5615 5620 5624
5663 5660 5657 5654 5652 5649 5647 5645 5643 5641 5640 5638 5635 5633 5631 5629 5628 5627 5627 5626 5626 5626 5624 5623 5622 5619 5613 5610 5610 5609 5607 5606 5606 5605 5604 5604 5605 5606 5609 5612 5616 5621
5661 5657 5654 5651 5648 5645 5643 5641 5639 5638 5636 5634 5631 5629 5627 5626 5625 5625 5625 5624 5624 5623 5622 5621 5620 5618 5614 5611 5609 5607 5606 5605 5605 5604 5604 5603 5603 5605 5607 5609 5613 5618
5658 5654 5650 5647 5644 5641 5639 5638 5636 5634 5632 5630 5627 5624 5624 5623 5622 5622 5623 5622 5622 5621 5621 5620 5619 5618 5614 5611 5609 5607 5605 5605 5604 5604 5603 5603 5602 5603 5605 5608 5611 5615
5655 5651 5646 5644 5640 5638 5637 5634 5632 5630 5629 5627 5625 5622 5621 5621 5621 5620 5620 5621 5621 5620 5619 5618 5617 5617 5614 5610 5608 5606 5604 5604 5604 5603 5602 5601 5601 5600 5602 5605 5608 5612
5651 5647 5643 5641 5638 5636 5634 5632 5629 5627 5625 5622 5621 5620 5619 5618 5618 5618 5617 5619 5619 5619 5619 5618 5616 5616 5614 5611 5608 5605 5603 5602 5603 5602 5601 5599 5599 5598 5599 5601 5605 5609